{"data":{"norad_id":63385,"intl_designator":"2025-063Y","name":"STARLINK-33616","alt_names":[],"object_type":"PAYLOAD","status":"ACTIVE","operator":null,"country":"US","launch_date":"2025-03-26","launch_site_code":"AFWTR","launch_vehicle":null,"mission":null,"orbit_class":"UNKNOWN","rcs_meters":null,"size_class":null,"mass_kg":null,"dimensions":null,"purposes":["comms"],"wikipedia_slug":null,"has_3d_model":false,"image_url":null,"decayed_at":null,"tle_current":{"epoch":"2026-05-25T03:14:08.886048Z","epoch_age_seconds":59927,"freshness":"FRESH","line1":"1 63385U 25063Y   26145.13482507  .00019154  00000+0  65679-3 0  9994","line2":"2 63385  53.1578  68.0275 0001034  88.2387 271.8732 15.30217087 66262","mean_motion":15.30217087,"eccentricity":0.0001034,"inclination_deg":53.1578,"raan_deg":68.0275,"arg_perigee_deg":88.2387,"mean_anomaly_deg":271.8732,"bstar":0.00065679,"rev_number":6626,"period_min":94.1042948895,"perigee_km":474.45541986333,"apogee_km":475.87268252071,"semimajor_km":6853.301051192,"source":"CELESTRAK","updated_at":"2026-05-25T13:38:19.966353Z"}}}